Wind_Speed
6 7 9 10 12 11 10 10 11 10 9 9 9 9 10 10 10 10 9 10 8 6 5 5 5 5 5 5 6 5 3 1 6 9 10 10 11 11 11 12 13 14 13 10 12 10 10 10 11
4 5 6 8 10 8 11 11 10 10 9 8 7 8 8 9 9 9 9 9 9 9 7 5 5 5 5 4 2 2 1 1 3 5 7 9 10 11 12 11 9 11 14 10 11 10 11 11 11
3 4 6 7 8 9 11 10 11 11 10 12 12 10 9 9 9 8 8 9 9 9 9 8 6 6 6 6 6 4 3 2 2 4 6 6 8 10 11 13 11 11 12 14 13 12 13 13 13
5 7 8 8 11 11 11 11 10 11 12 12 13 13 12 10 10 10 9 9 8 9 8 9 8 6 6 6 8 8 7 7 6 6 6 6 8 8 10 11 12 13 13 14 17 17 15 16 13
8 10 11 11 11 13 13 13 12 11 13 15 16 13 14 13 13 12 12 11 10 10 8 8 8 8 7 5 6 8 10 11 11 10 10 10 9 9 10 11 11 12 15 16 16 17 16 17 16
12 13 15 17 14 12 14 14 13 12 11 13 17 16 14 15 15 14 13 12 12 12 12 10 9 9 9 8 7 7 8 11 14 14 14 14 13 13 13 13 13 13 14 15 16 17 17 17 17
16 17 19 21 20 16 12 13 14 14 14 14 15 14 12 11 12 13 15 14 13 14 14 14 13 13 12 11 11 9 10 10 11 13 16 17 17 17 16 16 16 16 16 16 17 17 17 18 18
18 18 22 23 21 19 15 12 13 14 16 17 19 17 14 11 10 11 12 12 14 14 16 16 16 16 16 15 14 14 13 12 12 13 13 15 19 22 21 20 20 20 20 20 19 19 19 19 19
22 20 22 21 21 19 18 16 13 15 18 20 21 22 20 18 15 14 14 13 12 14 16 18 19 19 19 19 19 18 18 17 17 16 15 16 16 19 22 23 25 24 24 24 24 24 23 22 23
24 21 20 20 19 21 23 22 19 17 20 23 21 25 24 23 22 20 19 15 14 14 15 18 20 20 20 21 23 23 22 21 21 21 21 19 19 20 21 22 23 26 27 28 28 27 28 28 27
20 20 21 21 21 22 24 26 28 27 24 22 21 26 30 28 26 22 22 23 22 19 18 17 18 21 21 22 23 25 26 25 24 24 24 24 24 24 24 24 24 24 25 26 27 27 28 29 30
17 22 22 24 25 26 25 25 27 30 27 24 23 25 29 30 28 26 23 23 24 25 25 23 20 20 22 22 22 23 23 25 27 27 26 26 27 28 29 29 29 27 27 27 29 28 29 29 29
23 23 23 23 28 28 26 26 25 27 27 29 31 28 27 29 26 27 26 25 22 22 24 25 24 23 23 22 24 25 25 25 26 27 28 28 28 29 32 33 33 33 32 32 32 31 31 31 31
24 25 24 27 30 30 28 27 27 28 26 29 33 36 33 31 28 25 25 25 26 24 25 26 25 26 27 27 27 28 28 29 28 28 30 31 30 30 31 34 36 36 37 38 37 36 36 35 35
28 27 28 32 33 33 32 27 29 29 29 29 35 35 33 32 30 27 25 27 28 29 28 26 27 28 30 30 31 31 31 32 33 33 34 34 34 34 34 34 34 36 38 39 40 41 41 40 40
31 32 31 33 34 34 34 29 27 31 30 30 35 33 32 33 34 34 31 29 29 27 29 30 29 28 30 33 33 33 33 34 37 38 39 38 38 39 38 38 38 38 37 38 39 42 42 43 43
36 37 33 30 33 35 37 35 34 32 32 30 32 30 30 32 33 35 34 33 32 30 30 29 30 31 31 29 32 34 33 35 37 40 41 42 42 42 42 43 43 43 41 41 42 43 44 45 45
37 38 37 34 34 40 41 42 42 39 35 35 33 30 30 31 32 33 35 36 37 37 36 35 32 31 33 34 34 34 36 37 39 40 42 43 43 45 45 45 47 48 47 46 47 47 48 47 48
37 38 39 37 40 43 38 40 37 37 37 34 32 34 34 36 36 36 36 35 35 36 38 38 39 39 37 36 36 38 38 37 37 40 41 42 43 44 47 48 50 51 51 51 51 51 51 50 51
40 41 40 41 39 39 37 36 35 33 35 35 34 32 33 33 32 34 36 38 39 38 38 39 40 39 39 39 40 40 40 41 42 42 43 45 47 47 46 46 47 48 50 51 53 54 54 54 55
36 35 36 38 36 39 43 42 35 37 35 35 38 37 35 36 33 32 32 34 34 36 38 39 41 43 44 43 41 41 42 44 46 48 50 51 51 52 54 53 53 52 52 50 50 50 51 53 55
34 38 38 39 42 42 41 48 41 42 43 42 41 40 40 39 39 40 39 38 40 41 42 43 42 43 45 48 48 45 45 45 45 47 50 53 55 54 53 53 53 51 52 52 51 51 50 50 51
37 38 40 42 44 48 44 47 48 48 49 46 45 45 43 43 43 45 44 45 42 42 42 43 41 41 43 47 50 50 48 48 49 51 50 51 54 58 59 59 58 58 56 54 51 52 52 53 54
41 41 43 44 45 49 44 47 51 51 48 47 49 49 46 45 45 45 47 47 48 48 48 48 48 45 45 46 48 50 54 55 56 56 57 59 58 60 62 65 64 64 63 63 62 60 57 57 56
40 41 43 46 47 48 49 52 51 49 50 50 49 48 47 49 50 50 50 50 50 50 52 53 52 51 50 49 55 55 55 60 62 63 64 65 65 65 66 69 71 70 68 69 66 64 64 65 63
42 40 40 44 47 49 52 55 55 52 50 46 47 47 47 49 52 53 53 55 56 58 60 59 60 59 58 59 57 63 69 68 67 69 70 72 72 71 72 72 75 80 78 75 72 68 67 67 67
42 44 46 50 50 52 55 56 54 51 51 51 51 50 51 52 54 55 56 59 60 62 63 64 64 64 63 65 68 68 73 75 75 75 76 80 81 79 79 80 79 80 84 87 86 85 85 79 74
46 47 48 50 51 53 52 51 53 51 51 52 53 52 53 55 57 58 59 61 62 63 64 65 66 66 70 73 68 74 76 73 73 75 73 77 83 83 83 87 84 80 80 83 83 81 83 84 86
46 46 48 48 51 53 54 55 56 54 54 55 56 56 56 58 59 61 62 64 65 66 67 69 70 70 75 74 75 78 81 77 77 76 78 78 81 82 85 91 94 89 86 85 85 84 79 81 78
45 47 48 51 54 55 57 56 56 57 58 58 58 60 63 63 64 65 66 68 70 72 74 76 77 80 79 81 82 84 83 82 86 87 90 90 89 91 91 90 90 92 96 98 94 88 87 90 84
Wind_Direction
92 63 51 47 30 25 12 11 26 31 28 27 23 23 16 19 29 26 18 19 17 358 332 321 338 354 20 47 52 52 56 287 248 241 239 245 252 257 264 259 257 264 271 263 254 242 245 250 254
79 48 27 16 7 4 353 356 5 8 6 8 0 3 6 6 8 16 11 9 16 14 9 350 315 315 329 341 1 59 59 237 234 255 267 268 264 265 263 262 255 257 263 262 260 256 250 253 255
43 0 358 357 347 344 337 347 346 346 344 343 343 343 348 343 341 353 0 4 4 7 10 10 2 330 305 304 301 295 287 264 265 253 244 248 255 261 264 259 257 257 257 250 254 255 257 255 255
338 335 331 332 321 324 325 327 330 330 330 332 328 328 328 325 320 320 330 336 341 351 355 352 359 2 339 305 284 287 278 274 270 267 266 251 244 248 254 258 255 255 256 252 252 257 256 258 257
317 319 318 315 315 316 320 320 321 324 326 326 322 327 319 316 318 315 309 312 316 316 325 328 330 331 331 327 307 282 275 274 270 266 267 267 265 258 251 251 252 246 250 250 250 253 252 255 257
314 315 311 308 308 310 312 314 315 314 317 319 315 324 325 326 326 324 317 306 300 295 294 297 301 304 310 311 302 296 285 271 267 268 268 268 265 266 266 260 255 253 250 251 251 251 253 252 253
307 306 305 303 308 310 307 309 306 308 315 312 305 307 313 325 324 324 320 315 302 293 285 280 281 283 284 286 290 290 281 278 274 268 267 266 268 265 262 262 265 264 259 255 253 251 252 255 254
299 301 299 301 307 307 306 297 299 307 307 306 301 300 298 302 305 307 303 302 301 294 286 278 273 270 270 271 273 276 275 275 271 267 262 263 263 263 262 263 260 258 259 258 256 253 250 251 251
302 296 292 299 298 300 297 292 295 305 306 297 300 297 298 298 294 287 286 294 294 294 293 287 281 277 272 271 269 269 271 271 269 268 266 261 259 261 263 261 260 262 262 260 260 260 259 257 255
295 289 291 292 296 299 295 290 289 296 298 294 302 295 294 292 288 290 292 286 283 283 283 287 287 283 280 272 265 263 262 262 263 264 263 262 264 262 258 257 258 258 259 260 261 262 263 261 260
290 285 289 289 290 292 292 297 299 304 303 309 302 300 298 293 292 289 290 290 292 289 284 278 283 287 285 280 275 268 262 259 257 257 260 261 259 260 261 259 255 254 256 257 258 258 259 260 261
276 280 281 280 286 290 292 292 295 298 305 304 299 295 291 292 301 303 294 285 287 291 291 289 282 278 277 276 276 276 272 265 259 255 254 256 257 256 254 255 256 254 253 254 255 255 256 257 257
282 277 274 276 280 287 289 290 294 293 298 301 301 290 282 288 299 307 304 302 299 290 286 283 278 270 265 264 268 270 270 270 267 262 261 260 261 260 259 257 255 256 256 255 254 254 255 256 257
282 277 275 277 281 287 286 286 287 289 290 294 294 290 288 287 295 300 302 300 297 290 285 282 275 269 267 264 260 261 264 264 266 265 264 263 263 265 265 263 257 256 257 258 257 256 255 255 256
282 278 280 280 285 288 288 289 293 295 294 289 283 285 288 291 295 294 290 287 289 287 282 278 277 271 266 262 265 264 264 264 264 262 262 262 262 261 262 262 263 258 256 257 257 257 257 257 256
281 280 277 282 286 286 287 288 287 295 295 284 279 281 289 292 291 294 293 288 286 284 286 285 281 273 268 269 266 259 261 264 267 268 267 265 261 259 258 258 261 259 259 260 261 260 259 257 256
285 288 288 285 288 288 289 294 289 288 289 281 279 280 281 284 286 289 291 292 290 286 284 283 280 279 276 266 268 269 264 259 260 265 267 265 263 261 261 259 257 258 258 258 260 263 265 264 262
287 288 288 292 289 289 294 295 300 302 298 294 295 293 289 287 286 287 287 288 289 289 287 283 279 276 273 273 270 265 264 268 268 262 261 263 264 264 262 260 259 258 256 256 256 257 260 264 266
281 281 283 284 285 286 288 288 290 290 291 293 290 287 286 287 288 289 289 288 287 286 287 284 281 278 275 273 272 270 267 265 263 265 268 266 265 263 262 264 262 260 260 259 256 257 257 258 260
280 282 285 284 283 286 286 286 284 285 286 289 291 290 288 285 281 280 280 283 286 285 282 281 282 281 278 275 271 267 266 266 265 264 263 264 266 266 265 258 261 263 261 260 262 261 260 260 261
282 282 280 284 283 287 288 288 288 290 292 287 290 292 293 292 290 288 288 287 283 280 279 279 277 277 277 275 272 268 265 263 265 266 265 264 263 264 267 266 263 262 258 257 259 259 260 261 261
279 279 279 281 284 284 283 286 288 289 288 293 298 295 294 295 297 297 297 296 294 291 290 289 285 280 278 276 274 270 268 264 264 264 264 264 265 263 259 260 261 260 257 254 254 256 257 258 260
278 280 282 283 284 284 288 289 293 295 297 300 300 302 304 303 302 301 300 299 296 293 292 289 284 281 277 276 276 276 273 269 265 266 267 267 266 262 260 258 257 257 254 254 255 255 256 258 260
281 283 283 283 283 282 286 285 287 291 297 297 297 296 295 296 295 294 293 293 294 293 291 289 287 282 279 274 267 269 271 271 270 266 266 266 264 260 259 259 258 258 257 256 255 256 259 259 260
279 281 282 282 283 284 285 284 285 290 290 289 290 290 292 293 292 292 292 291 289 286 285 283 279 275 273 267 257 254 261 265 266 266 266 264 264 265 263 260 256 256 257 259 258 258 260 262 263
279 279 279 281 281 284 285 286 289 290 288 286 286 287 287 288 288 288 285 284 283 282 280 278 276 275 274 268 262 258 256 261 261 262 263 262 260 262 263 262 260 257 256 258 257 257 260 261 262
279 281 278 276 277 278 280 280 283 282 281 281 282 282 282 282 282 282 282 281 280 280 278 277 276 275 273 271 268 267 258 257 258 258 261 262 265 265 265 265 263 260 262 260 258 258 264 266 265
280 278 278 278 278 276 280 284 283 282 279 279 281 280 282 282 281 281 281 280 279 277 276 277 277 275 275 274 270 267 270 264 264 266 268 266 265 265 264 264 267 267 265 263 262 264 268 270 271
284 285 282 277 275 276 280 286 284 281 280 279 280 280 280 278 277 278 279 277 276 277 278 278 277 276 277 274 269 268 273 270 263 266 269 267 268 266 265 263 265 268 269 271 270 261 260 265 263
285 284 281 279 279 275 273 284 281 280 279 279 278 277 276 276 278 278 278 276 276 277 278 279 279 279 277 274 270 273 273 269 266 268 268 268 268 269 267 267 267 268 271 274 271 269 268 263 265
Height
5884 5884 5884 5884 5885 5882 5881 5880 5878 5877 5876 5875 5875 5873 5872 5871 5870 5871 5868 5866 5865 5864 5864 5864 5864 5864 5864 5864 5864 5864 5865 5865 5866 5867 5868 5868 5869 5869 5869 5870 5870 5871 5871 5872 5873 5874 5875 5876 5878
5885 5885 5885 5884 5884 5883 5881 5879 5878 5877 5876 5875 5875 5874 5873 5871 5871 5870 5868 5867 5866 5865 5864 5864 5864 5864 5864 5864 5864 5864 5865 5865 5866 5866 5867 5867 5868 5868 5868 5869 5870 5870 5870 5871 5872 5873 5874 5875 5876
5885 5885 5886 5884 5883 5883 5881 5879 5877 5876 5875 5874 5874 5873 5873 5872 5870 5870 5868 5867 5866 5866 5865 5864 5864 5863 5863 5864 5864 5865 5865 5865 5865 5865 5866 5866 5867 5867 5867 5868 5868 5869 5869 5869 5870 5870 5872 5872 5873
5884 5885 5885 5884 5882 5881 5880 5879 5877 5876 5874 5874 5872 5872 5872 5870 5870 5868 5868 5867 5866 5866 5865 5864 5863 5862 5862 5862 5863 5863 5864 5864 5864 5865 5865 5865 5865 5866 5866 5866 5867 5866 5867 5868 5869 5869 5869 5870 5870
5883 5883 5882 5881 5881 5879 5879 5877 5876 5875 5874 5872 5871 5871 5869 5868 5868 5868 5867 5867 5866 5865 5864 5863 5863 5862 5861 5861 5860 5861 5861 5862 5862 5863 5863 5864 5864 5864 5864 5864 5865 5865 5865 5866 5866 5867 5867 5868 5868
5882 5881 5880 5878 5879 5879 5877 5876 5874 5874 5873 5872 5869 5868 5867 5866 5866 5865 5865 5865 5863 5863 5862 5862 5861 5861 5861 5861 5860 5860 5860 5860 5860 5860 5861 5861 5862 5862 5863 5863 5863 5863 5864 5863 5863 5864 5865 5865 5866
5880 5879 5877 5875 5875 5876 5875 5874 5872 5871 5871 5869 5868 5867 5866 5865 5864 5863 5862 5861 5861 5860 5859 5859 5859 5859 5859 5859 5859 5859 5858 5858 5858 5858 5858 5858 5858 5859 5860 5860 5861 5861 5861 5861 5861 5861 5862 5862 5862
5877 5877 5874 5873 5873 5872 5872 5871 5870 5869 5868 5866 5863 5863 5863 5863 5862 5860 5858 5858 5857 5857 5856 5856 5855 5855 5855 5855 5856 5856 5856 5856 5855 5855 5855 5855 5855 5855 5856 5856 5856 5857 5857 5857 5857 5858 5858 5858 5859
5874 5873 5871 5870 5869 5869 5868 5868 5868 5867 5864 5862 5861 5859 5859 5858 5858 5857 5856 5856 5855 5854 5853 5853 5853 5852 5853 5852 5852 5852 5853 5853 5852 5852 5852 5852 5852 5851 5851 5852 5852 5852 5852 5852 5853 5853 5854 5854 5855
5870 5869 5867 5866 5866 5865 5863 5864 5865 5865 5862 5859 5859 5854 5854 5853 5852 5853 5853 5852 5852 5851 5850 5849 5848 5848 5848 5848 5847 5847 5847 5847 5848 5848 5848 5848 5848 5848 5847 5847 5846 5847 5847 5847 5848 5848 5848 5849 5849
5866 5864 5863 5862 5862 5861 5859 5857 5856 5857 5857 5856 5855 5851 5846 5846 5847 5849 5849 5848 5847 5847 5847 5847 5846 5845 5844 5844 5843 5842 5842 5842 5842 5842 5843 5843 5843 5843 5843 5843 5842 5842 5842 5842 5842 5843 5842 5843 5843
5862 5860 5859 5857 5856 5855 5855 5855 5854 5851 5852 5851 5850 5847 5842 5840 5841 5844 5845 5844 5844 5843 5842 5842 5842 5840 5839 5838 5838 5837 5837 5837 5837 5836 5836 5836 5836 5836 5836 5836 5837 5837 5836 5836 5836 5836 5836 5837 5837
5857 5856 5855 5854 5851 5851 5851 5851 5850 5848 5848 5845 5842 5840 5839 5836 5839 5837 5836 5837 5838 5837 5836 5834 5834 5834 5833 5833 5832 5831 5831 5831 5831 5832 5831 5831 5830 5830 5829 5830 5830 5830 5830 5829 5829 5830 5830 5830 5831
5850 5850 5849 5848 5846 5846 5847 5846 5845 5843 5843 5841 5836 5830 5830 5832 5834 5834 5832 5831 5830 5829 5829 5828 5827 5826 5827 5827 5826 5825 5824 5824 5824 5824 5824 5825 5824 5824 5823 5822 5822 5822 5822 5822 5822 5822 5822 5823 5823
5842 5843 5843 5840 5839 5839 5837 5841 5838 5837 5837 5836 5829 5826 5826 5826 5828 5828 5826 5824 5822 5820 5820 5820 5820 5820 5819 5818 5818 5819 5819 5818 5816 5816 5816 5816 5817 5816 5816 5814 5814 5814 5813 5813 5813 5813 5814 5815 5815
5835 5835 5836 5835 5833 5831 5830 5834 5834 5831 5831 5828 5822 5822 5822 5821 5818 5817 5817 5816 5815 5814 5813 5812 5812 5811 5812 5811 5810 5810 5811 5811 5810 5809 5808 5808 5808 5807 5807 5807 5807 5806 5806 5806 5805 5804 5804 5805 5805
5827 5825 5827 5829 5826 5823 5822 5823 5825 5826 5822 5819 5817 5817 5816 5814 5812 5811 5810 5808 5807 5807 5806 5806 5804 5803 5802 5802 5802 5801 5801 5801 5801 5801 5799 5798 5798 5798 5798 5797 5796 5796 5797 5797 5796 5796 5796 5796 5796
5819 5818 5818 5820 5821 5815 5815 5812 5811 5811 5811 5810 5809 5808 5808 5808 5806 5805 5803 5801 5799 5797 5796 5797 5796 5795 5794 5793 5793 5791 5791 5791 5790 5789 5788 5788 5788 5788 5787 5786 5785 5785 5785 5786 5786 5785 5785 5786 5786
5811 5810 5808 5811 5809 5803 5808 5804 5805 5802 5801 5801 5802 5801 5800 5798 5796 5794 5792 5792 5791 5789 5787 5786 5786 5785 5785 5784 5783 5782 5780 5779 5778 5778 5778 5777 5777 5777 5777 5776 5774 5774 5774 5774 5774 5774 5774 5774 5773
5801 5800 5801 5798 5798 5797 5796 5794 5794 5794 5792 5791 5790 5790 5790 5790 5789 5788 5786 5783 5782 5780 5779 5778 5776 5774 5773 5772 5771 5771 5770 5769 5768 5766 5765 5764 5764 5764 5764 5764 5764 5762 5762 5762 5762 5762 5762 5762 5762
5793 5791 5790 5789 5789 5786 5784 5784 5786 5784 5785 5784 5782 5780 5778 5776 5775 5774 5774 5773 5772 5770 5769 5767 5766 5764 5763 5762 5760 5759 5758 5757 5756 5754 5753 5752 5752 5752 5751 5751 5751 5750 5749 5748 5749 5749 5748 5748 5748
5784 5781 5781 5780 5777 5776 5776 5772 5775 5774 5772 5771 5770 5768 5767 5765 5762 5760 5759 5759 5759 5760 5759 5757 5755 5753 5751 5749 5747 5746 5744 5743 5742 5740 5739 5739 5739 5738 5738 5737 5737 5736 5735 5735 5734 5734 5735 5735 5736
5774 5773 5772 5771 5768 5766 5768 5762 5760 5758 5756 5757 5755 5752 5749 5748 5748 5746 5745 5743 5743 5743 5743 5742 5742 5741 5739 5737 5734 5733 5731 5730 5727 5726 5725 5724 5724 5723 5723 5723 5723 5723 5722 5721 5720 5720 5719 5719 5720
5763 5762 5760 5759 5758 5756 5758 5755 5753 5749 5748 5746 5744 5741 5739 5737 5735 5733 5732 5732 5731 5729 5728 5726 5725 5724 5723 5721 5719 5717 5715 5713 5712 5711 5710 5708 5706 5705 5706 5706 5707 5706 5706 5704 5704 5704 5704 5704 5704
5753 5751 5749 5747 5746 5746 5745 5742 5742 5741 5738 5735 5731 5730 5727 5725 5723 5721 5720 5718 5717 5714 5713 5711 5709 5707 5705 5703 5702 5700 5699 5698 5695 5692 5691 5690 5689 5688 5687 5687 5687 5686 5687 5688 5687 5686 5686 5685 5686
5740 5741 5740 5736 5735 5735 5732 5729 5730 5727 5725 5724 5720 5719 5716 5713 5711 5709 5707 5705 5702 5699 5695 5694 5691 5689 5688 5686 5684 5683 5680 5679 5677 5674 5671 5670 5669 5668 5667 5667 5667 5666 5665 5665 5667 5668 5667 5667 5667
5731 5730 5729 5723 5725 5722 5721 5718 5719 5718 5715 5713 5710 5708 5704 5702 5699 5695 5692 5688 5685 5680 5678 5676 5673 5670 5668 5666 5664 5663 5661 5659 5657 5655 5653 5649 5647 5644 5644 5643 5643 5644 5645 5644 5644 5643 5644 5647 5647
5718 5716 5713 5709 5707 5704 5707 5708 5704 5704 5701 5699 5697 5695 5691 5687 5684 5681 5677 5671 5667 5663 5659 5655 5653 5649 5647 5645 5643 5641 5640 5638 5635 5634 5632 5629 5626 5623 5622 5620 5619 5619 5620 5621 5621 5621 5621 5622 5623
5702 5699 5697 5696 5692 5689 5690 5696 5691 5688 5686 5684 5681 5679 5676 5672 5669 5665 5661 5655 5651 5646 5642 5637 5635 5632 5629 5626 5624 5622 5619 5616 5614 5611 5610 5607 5605 5602 5600 5599 5597 5595 5594 5595 5597 5598 5598 5599 5600
5690 5686 5683 5679 5678 5675 5671 5679 5677 5675 5670 5667 5666 5661 5657 5654 5652 5649 5645 5639 5634 5629 5624 5620 5616 5613 5609 5607 5605 5601 5599 5596 5593 5589 5587 5585 5582 5579 5578 5577 5577 5574 5571 5569 5569 5571 5572 5573 5575